DW4974 Weather Reports


time (UTC)temp
C
wind
direction
speed
KPH
gust
KPH
rain 1hr
cm
rain 24hr
cm
rain mn
cm
humidity
%
barometer
mb
20260510204522 19 86 4.8 16.1 0.00 0.41 0.28 47 1021.8
20260510203534 19 86 3.2 17.7 0.00 0.41 0.28 49 1021.9
20260510202552 19 86 8.0 16.1 0.00 0.41 0.28 46 1021.9
20260510201519 19 86 4.8 20.9 0.00 0.41 0.28 51 1021.7
20260510200525 19 87 1.6 14.5 0.00 0.41 0.28 52 1021.6
20260510195545 19 87 1.6 17.7 0.00 0.41 0.28 53 1021.5
20260510194519 18 88 11.3 16.1 0.00 0.41 0.28 58 1021.7
20260510193527 18 88 6.4 16.1 0.00 0.41 0.28 60 1021.6
20260510192548 18 88 8.0 16.1 0.00 0.41 0.28 61 1021.4
20260510191545 17 88 1.6 14.5 0.00 0.41 0.28 64 1021.5
20260510190527 16 88 8.0 16.1 0.00 0.41 0.28 70 1021.5
20260510185538 16 88 1.6 16.1 0.00 0.41 0.28 71 1021.8
20260510184552 15 88 0.0 12.9 0.00 0.41 0.28 76 1021.6
20260510183535 14 88 0.0 12.9 0.00 0.41 0.28 78 1021.4
20260510182544 13 88 0.0 11.3 0.00 0.41 0.28 80 1021.9
20260510181529 13 88 4.8 11.3 0.00 0.41 0.28 80 1021.4
20260510180525 13 88 3.2 9.7 0.03 0.41 0.28 81 1021.6
20260510175536 13 88 3.2 8.0 0.05 0.41 0.28 81 1021.6
20260510174523 13 88 1.6 9.7 0.05 0.41 0.28 81 1022.0
20260510173529 13 88 0.0 11.3 0.05 0.41 0.28 82 1021.5
20260510172519 13 88 3.2 9.7 0.08 0.41 0.28 82 1021.6
20260510171528 13 88 0.0 4.8 0.10 0.41 0.28 81 1021.5
20260510170536 12 88 0.0 11.3 0.08 0.38 0.25 81 1021.2
20260510165528 12 88 4.8 9.7 0.08 0.36 0.23 82 1021.1
20260510164533 12 88 3.2 14.5 0.08 0.36 0.23 81 1021.0
20260510163556 13 88 6.4 11.3 0.08 0.36 0.23 79 1020.3
20260510162523 13 88 9.7 17.7 0.05 0.33 0.20 77 1020.2
20260510161528 13 88 6.4 17.7 0.03 0.30 0.18 74 1020.5
20260510160528 13 89 9.7 22.5 0.03 0.30 0.18 72 1020.5
20260510155535 14 91 9.7 20.9 0.00 0.28 0.15 70 1020.7
20260510154535 14 92 16.1 25.7 0.00 0.28 0.15 69 1020.1
20260510153531 14 98 16.1 24.1 0.00 0.28 0.15 70 1019.8
20260510152539 14 103 12.9 24.1 0.00 0.28 0.15 72 1019.7
20260510151526 14 106 14.5 22.5 0.00 0.28 0.15 74 1020.2
20260510150532 13 108 12.9 19.3 0.00 0.28 0.15 76 1020.1
20260510145543 13 109 9.7 19.3 0.00 0.28 0.15 77 1020.0
20260510144526 14 109 12.9 24.1 0.00 0.28 0.15 77 1020.1
20260510143531 14 116 12.9 20.9 0.00 0.28 0.15 79 1019.8
20260510142525 14 113 11.3 22.5 0.00 0.28 0.15 80 1019.7
20260510141530 14 117 8.0 22.5 0.00 0.28 0.15 81 1019.4
20260510140539 14 121 8.0 19.3 0.03 0.28 0.15 82 1019.6
20260510135523 14 123 4.8 16.1 0.05 0.28 0.15 83 1019.7
20260510134531 14 123 6.4 16.1 0.10 0.28 0.15 84 1019.3
20260510133532 14 360 3.2 8.0 0.13 0.28 0.15 85 1019.0
20260510132528 14 131 3.2 11.3 0.15 0.28 0.15 85 1018.8
20260510131555 14 134 1.6 8.0 0.15 0.28 0.15 84 1018.3
20260510130553 14 134 1.6 8.0 0.13 0.25 0.13 84 1018.0
20260510125527 14 134 0.0 3.2 0.10 0.23 0.10 83 1017.8
20260510124517 15 134 0.0 1.6 0.05 0.18 0.05 82 1018.2
20260510123532 15 133 0.0 3.2 0.03 0.15 0.03 81 1018.5
20260510122519 15 133 0.0 1.6 0.00 0.13 0.00 81 1017.9
20260510121531 15 133 0.0 1.6 0.00 0.13 0.00 80 1018.1
20260510120519 15 133 0.0 3.2 0.00 0.13 0.00 79 1018.1
20260510115532 15 133 0.0 1.6 0.00 0.13 0.00 79 1018.0
20260510114522 15 133 0.0 8.0 0.00 0.13 0.00 79 1017.2
20260510113536 15 125 0.0 3.2 0.00 0.13 0.00 79 1017.0
20260510112520 15 125 0.0 1.6 0.00 0.13 0.00 79 1016.2
20260510111528 14 125 0.0 4.8 0.00 0.13 0.00 80 1015.5
20260510110534 14 125 0.0 3.2 0.00 0.13 0.00 80 1015.5
20260510105521 14 125 1.6 3.2 0.00 0.13 0.00 81 1015.0
20260510104529 13 125 0.0 3.2 0.00 0.13 0.00 82 1014.5
20260510103518 13 125 0.0 3.2 0.00 0.13 0.00 82 1014.0
20260510102522 14 125 0.0 3.2 0.00 0.13 0.00 81 1013.8
20260510101522 14 125 0.0 3.2 0.00 0.13 0.00 81 1013.7
20260510100535 14 125 0.0 4.8 0.00 0.13 0.00 81 1013.6
20260510095525 14 125 0.0 3.2 0.00 0.13 0.00 80 1013.7
20260510094514 14 125 0.0 3.2 0.00 0.13 0.00 80 1013.9
20260510093524 13 125 0.0 0.0 0.00 0.13 0.00 79 1013.9
20260510092520 13 125 0.0 0.0 0.00 0.13 0.00 78 1013.7
20260510091555 14 125 0.0 3.2 0.00 0.13 0.00 76 1013.6
20260510090548 15 125 0.0 0.0 0.00 0.13 0.00 76 1013.9
20260510085528 15 125 0.0 1.6 0.00 0.13 0.00 77 1013.8
20260510084520 15 125 0.0 0.0 0.00 0.13 0.00 77 1013.6
20260510083523 15 125 0.0 4.8 0.00 0.13 0.00 77 1013.7
20260510082532 15 125 1.6 3.2 0.00 0.13 0.00 76 1013.3
20260510081531 15 125 0.0 3.2 0.00 0.13 0.00 72 1012.9
20260510080535 15 125 0.0 4.8 0.00 0.13 0.00 70 1012.7
20260510075550 16 125 0.0 4.8 0.00 0.13 0.00 68 1012.6
20260510074540 16 125 0.0 0.0 0.00 0.13 0.00 67 1012.5
20260510073526 16 125 0.0 0.0 0.00 0.13 0.00 66 1012.5
20260510072558 17 125 0.0 0.0 0.00 0.13 0.00 66 1012.6
20260510071545 17 125 0.0 1.6 0.00 0.13 0.00 65 1012.8
20260510070536 17 125 0.0 1.6 0.00 0.13 0.00 63 1012.5
20260510065519 18 125 0.0 0.0 0.00 0.13 0.00 58 1012.3
20260510064528 19 125 0.0 0.0 0.00 0.13 0.00 54 1012.2
20260510063542 19 125 0.0 8.0 0.00 0.13 0.00 52 1011.8
20260510062530 20 125 0.0 11.3 0.00 0.13 0.00 51 1011.3
20260510061523 20 126 1.6 9.7 0.00 0.13 0.00 53 1011.1
20260510060550 20 126 1.6 16.1 0.00 0.13 0.00 54 1010.8
20260510055523 20 128 8.0 16.1 0.00 0.13 0.00 55 1010.2
20260510054518 20 132 4.8 14.5 0.03 0.13 0.00 55 1010.7
20260510053547 20 133 4.8 22.5 0.03 0.13 0.00 53 1010.1
20260510052523 20 360 14.5 27.4 0.03 0.13 0.00 54 1008.7
20260510051554 20 360 17.7 29.0 0.03 0.13 0.00 54 1008.1
20260510050555 20 360 20.9 37.0 0.03 0.13 0.00 55 1007.3
20260510045554 20 360 24.1 30.6 0.08 0.13 0.13 57 1007.5
20260510044524 20 360 19.3 27.4 0.05 0.10 0.10 58 1009.7
20260510043528 19 170 12.9 27.4 0.08 0.10 0.10 61 1010.2
20260510042524 18 163 14.5 29.0 0.10 0.10 0.10 63 1009.9
20260510041528 18 124 20.9 40.2 0.10 0.10 0.10 66 1009.5
20260510040550 18 133 17.7 29.0 0.10 0.10 0.10 65 1011.2
20260510035517 18 201 11.3 20.9 0.05 0.05 0.05 65 1013.0
20260510034551 18 117 1.6 19.3 0.05 0.05 0.05 66 1013.3
20260510033526 20 105 17.7 20.9 0.03 0.03 0.03 63 1012.0
20260510032538 21 35 9.7 12.9 0.00 0.00 0.00 56 1013.5
20260510031532 21 5 1.6 11.3 0.00 0.00 0.00 50 1014.9
20260510030538 21 5 8.0 22.5 0.00 0.00 0.00 53 1014.8
20260510025539 21 18 6.4 14.5 0.00 0.00 0.00 48 1014.0
20260510024520 22 19 1.6 9.7 0.00 0.00 0.00 45 1013.4
20260510023527 22 19 1.6 9.7 0.00 0.00 0.00 44 1012.7
20260510022535 22 19 1.6 9.7 0.00 0.00 0.00 44 1011.3
20260510021524 22 19 1.6 11.3 0.00 0.00 0.00 45 1010.5
20260510020536 22 19 8.0 12.9 0.00 0.00 0.00 45 1009.6
20260510015526 22 18 8.0 14.5 0.00 0.00 0.00 44 1009.5
20260510014521 22 15 8.0 17.7 0.00 0.00 0.00 43 1009.5
20260510013528 22 12 4.8 16.1 0.00 0.00 0.00 44 1009.3
20260510012527 22 11 8.0 12.9 0.00 0.00 0.00 44 1009.0
20260510011535 22 10 0.0 11.3 0.00 0.00 0.00 43 1008.7
20260510010554 23 10 0.0 9.7 0.00 0.00 0.00 43 1008.5
20260510005521 23 10 6.4 11.3 0.00 0.00 0.00 41 1008.4
20260510004514 25 9 0.0 14.5 0.00 0.00 0.00 39 1008.2
20260510003523 25 9 6.4 17.7 0.00 0.00 0.00 35 1007.9
20260510002536 26 5 0.0 14.5 0.00 0.00 0.00 36 1008.0
20260510001557 26 5 9.7 14.5 0.00 0.00 0.00 32 1008.1
20260510000522 26 360 4.8 16.1 0.00 0.00 0.00 34 1008.0
20260509235525 27 360 11.3 17.7 0.00 0.00 0.00 31 1008.0
20260509234534 27 355 11.3 16.1 0.00 0.00 0.00 30 1008.1
20260509233553 27 348 11.3 14.5 0.00 0.00 0.00 30 1008.1
20260509232520 27 346 6.4 16.1 0.00 0.00 0.00 31 1008.0
20260509231530 28 342 9.7 17.7 0.00 0.00 0.00 29 1008.1
20260509230522 28 338 9.7 16.1 0.00 0.00 0.00 29 1008.2
20260509225535 28 327 8.0 19.3 0.00 0.00 0.00 28 1008.2
20260509224527 28 324 9.7 14.5 0.00 0.00 0.00 29 1008.1
20260509223557 28 323 8.0 16.1 0.00 0.00 0.00 28 1008.1
20260509222551 28 322 11.3 19.3 0.00 0.00 0.00 27 1008.2
20260509221529 29 312 8.0 17.7 0.00 0.00 0.00 29 1008.0
20260509220530 29 309 9.7 16.1 0.00 0.00 0.00 24 1008.1
20260509215549 29 360 6.4 14.5 0.00 0.00 0.00 25 1008.1
20260509214552 29 360 6.4 16.1 0.00 0.00 0.00 23 1008.2
20260509213537 30 360 0.0 16.1 0.00 0.00 0.00 22 1008.3
20260509212521 30 305 1.6 19.3 0.00 0.00 0.00 24 1008.4
20260509211535 30 360 1.6 14.5 0.00 0.00 0.00 24 1008.5
20260509210552 30 360 4.8 14.5 0.00 0.00 0.00 24 1008.6
20260509205521 30 360 3.2 14.5 0.00 0.00 0.00 25 1008.7